INMARSAT 3-F5

Last updated on Tue Jul 01 2025 00:02:43 GMT+0000 (Coordinated Universal Time)

1 25153U 98006B 25181.48582178 -.00000295 00000+0 00000+0 0 9994 2 25153 8.9037 56.6741 0004342 44.2418 298.7463 1.00274419100367
UTC large
Height (km)
Speed (km/s)
/
Latitude / Longitude
Inclination (degrees)
Orbital Period (minutes)
Azimuth
Elevation
Range (km)
Doppler Factor

Next 0 passes for location: London (51.5072 / 0.1276)

Sorry there are no passes over London.